Jaffrey, NH

12:31 AM EDT on June 29, 2017 (GMT -0400)
Jaffrey Airport-Silver Ranch

Weather History for KAFN - March, 2014

Change the Weather History Date:

Thursday, March 20, 2014

  Actual Average Record
Temperature  
Mean Temperature 36 °F -  
Max Temperature 42 °F 38 °F 78 °F (2012)
Min Temperature 30 °F 20 °F 8 °F (2004)
Degree Days  
Heating Degree Days 30    
Moisture  
Dew Point 29 °F    
Average Humidity 82    
Maximum Humidity 96    
Minimum Humidity 53    
Precipitation  
Precipitation 0.43 in - - ()
Sea Level Pressure  
Sea Level Pressure 29.74 in    
Wind  
Wind Speed 4 mph (West)    
Max Wind Speed 13 mph    
Max Gust Speed 31 mph    
Visibility 6 miles    
Events Rain , Snow    
Averages and records for this station are not official NWS values.
T = Trace of Precipitation, MM = Missing Value Source: NWS Daily Summary

Daily Weather History Graph

Daily Weather History Graph

Search for Another Location

Airport or City:

Trip Planner

Search our weather history database for the weather conditions in past years. The results will help you decide how hot, cold, wet, or windy it might be!

Date:

Astronomy

Mar. 20, 2014 Rise Set
Actual Time 6:51 AM EDT 7:00 PM EDT
Civil Twilight 6:23 AM EDT 7:28 PM EDT
Nautical Twilight 5:50 AM EDT 8:01 PM EDT
Astronomical Twilight 5:16 AM EDT 8:35 PM EDT
Moon 11:23 PM EDT (3/20) 8:50 AM EDT (3/20)
Length of Visible Light 13h 05m
Length of Day
12h 08m
Waning Gibbous, 84% of the Moon is Illuminated
Mar 20
Waning Gibbous
Mar 23
Last Quarter
Mar 30
New
Apr 7
First Quarter
Apr 15
Full

Hourly Weather History & Observations

Time (EDT) Temp. Windchill Dew Point Humidity Pressure Visibility Wind Dir Wind Speed Gust Speed Precip Events Conditions
12:19 AM 30.9 °F - 28.0 °F 89% 29.94 in 2.5 mi Calm Calm - 0.08 in Snow Light Snow
12:34 AM 30.9 °F 27.5 °F 28.9 °F 92% 29.92 in 3.0 mi Variable 3.5 mph - 0.15 in Snow Light Snow
12:50 AM 30.2 °F 24.3 °F 28.4 °F 93% 29.90 in 4.0 mi Variable 5.8 mph - 0.18 in   Overcast
12:52 AM 30.9 °F 25.2 °F 28.0 °F 89% 29.95 in 5.0 mi Variable 5.8 mph - 0.19 in   Overcast
1:09 AM 32.0 °F - 28.9 °F 88% 29.90 in 6.0 mi Calm Calm - 0.01 in Rain Light Freezing Rain
1:41 AM 32.0 °F - 28.9 °F 88% 29.87 in 4.0 mi Calm Calm - 0.07 in Snow Light Snow
1:52 AM 32.0 °F - 28.9 °F 88% 29.91 in 5.0 mi Calm Calm - 0.10 in   Overcast
1:59 AM 32.0 °F 27.5 °F 28.9 °F 88% 29.86 in 6.0 mi East 4.6 mph - 0.01 in   Overcast
2:01 AM 32.0 °F 27.5 °F 28.9 °F 88% 29.86 in 6.0 mi Variable 4.6 mph - 0.01 in   Overcast
2:08 AM 32.0 °F 27.5 °F 28.9 °F 88% 29.85 in 6.0 mi NNE 4.6 mph - 0.02 in Rain Light Freezing Rain
2:16 AM 32.0 °F 28.7 °F 30.0 °F 92% 29.85 in 6.0 mi Variable 3.5 mph - 0.03 in Rain Light Freezing Rain
2:52 AM 32.0 °F 28.7 °F 30.0 °F 92% 29.85 in 6.0 mi Variable 3.5 mph - 0.07 in Rain Light Freezing Rain
3:00 AM 32.0 °F 27.5 °F 28.9 °F 88% 29.80 in 4.0 mi Variable 4.6 mph - 0.02 in Rain Light Freezing Rain
3:18 AM 32.0 °F - 30.0 °F 92% 29.77 in 6.0 mi North - - 0.05 in Rain Light Freezing Rain
3:52 AM 33.1 °F 28.7 °F 30.0 °F 89% 29.80 in 3.0 mi Variable 4.6 mph - 0.06 in Rain Light Freezing Rain
4:36 AM 33.1 °F - 30.9 °F 92% 29.73 in 4.0 mi Calm Calm - 0.01 in Rain Light Rain
4:52 AM 33.1 °F - 30.9 °F 92% 29.77 in 4.0 mi Calm Calm - 0.01 in   Overcast
5:52 AM 33.1 °F - 30.9 °F 92% 29.74 in 4.0 mi Calm Calm - 0.00 in   Overcast
6:14 AM 32.0 °F 27.5 °F 30.9 °F 96% 29.69 in 2.5 mi North 4.6 mph - N/A   Overcast
6:52 AM 32.0 °F 28.7 °F 30.9 °F 96% 29.72 in 2.5 mi Variable 3.5 mph - N/A   Overcast
7:14 AM 32.0 °F - 30.9 °F 96% 29.66 in 1.5 mi Calm Calm - N/A   Overcast
7:52 AM 32.0 °F - 30.9 °F 96% 29.70 in 1.5 mi Calm Calm - N/A   Overcast
8:17 AM 33.1 °F - 30.9 °F 92% 29.64 in 1.2 mi Calm Calm - N/A   Overcast
8:28 AM 33.1 °F - 30.9 °F 92% 29.64 in 1.0 mi Calm Calm - N/A   Overcast
8:37 AM 33.1 °F - 30.9 °F 92% 29.64 in 1.5 mi Calm Calm - N/A   Overcast
8:52 AM 33.1 °F - 32.0 °F 96% 29.68 in 1.5 mi Calm Calm - N/A   Overcast
9:32 AM 33.1 °F - 32.0 °F 96% 29.63 in 3.0 mi Calm Calm - N/A   Overcast
9:52 AM 33.1 °F 28.7 °F 30.9 °F 92% 29.68 in 8.0 mi SSW 4.6 mph - N/A   Overcast
10:17 AM 33.1 °F 26.9 °F 30.9 °F 92% 29.64 in 10.0 mi SSW 6.9 mph - N/A   Overcast
10:52 AM 34.0 °F 28.8 °F 32.0 °F 92% 29.68 in 10.0 mi SSW 5.8 mph - 0.00 in   Overcast
11:52 AM 37.0 °F 31.6 °F 34.0 °F 89% 29.68 in 10.0 mi WSW 6.9 mph - N/A   Overcast
12:03 PM 37.9 °F 32.7 °F 34.0 °F 86% 29.62 in 10.0 mi West 6.9 mph - N/A   Overcast
12:42 PM 39.9 °F 35.1 °F 33.1 °F 77% 29.62 in 10.0 mi Variable 6.9 mph 16.1 mph N/A   Overcast
12:50 PM 41.0 °F 35.2 °F 32.0 °F 70% 29.61 in 10.0 mi West 9.2 mph 17.3 mph N/A   Mostly Cloudy
12:52 PM 41.0 °F 33.9 °F 32.0 °F 70% 29.65 in 10.0 mi West 12.7 mph 20.7 mph N/A   Mostly Cloudy
1:52 PM 41.0 °F 34.7 °F 28.0 °F 60% 29.65 in 10.0 mi West 10.4 mph 31.1 mph N/A   Partly Cloudy
2:52 PM 41.0 °F 34.7 °F 26.1 °F 55% 29.66 in 10.0 mi WNW 10.4 mph 21.9 mph N/A   Overcast
3:52 PM 41.0 °F 34.3 °F 25.0 °F 53% 29.66 in 10.0 mi West 11.5 mph 18.4 mph N/A   Overcast
4:52 PM 41.0 °F 34.7 °F 25.0 °F 53% 29.67 in 10.0 mi West 10.4 mph 24.2 mph N/A   Mostly Cloudy
5:52 PM 39.9 °F 32.5 °F 25.0 °F 55% 29.70 in 10.0 mi West 12.7 mph 24.2 mph N/A   Overcast
6:52 PM 37.9 °F 30.0 °F 23.0 °F 55% 29.72 in 10.0 mi West 12.7 mph 19.6 mph N/A   Clear
7:52 PM 37.0 °F 32.4 °F 25.0 °F 62% 29.73 in 10.0 mi WSW 5.8 mph 19.6 mph N/A   Mostly Cloudy
8:52 PM 36.0 °F 29.0 °F 24.1 °F 62% 29.74 in 10.0 mi West 9.2 mph 17.3 mph N/A   Mostly Cloudy
9:52 PM 36.0 °F 28.0 °F 24.1 °F 62% 29.75 in 10.0 mi WSW 11.5 mph 18.4 mph N/A   Mostly Cloudy
10:52 PM 35.1 °F 27.4 °F 23.0 °F 61% 29.75 in 10.0 mi West 10.4 mph 16.1 mph N/A   Mostly Cloudy
11:52 PM 35.1 °F 26.4 °F 21.0 °F 57% 29.75 in 10.0 mi West 12.7 mph 25.3 mph N/A   Overcast